Weather in Lyamina

Russia / Khanty-Mansi Autonomous Okrug — Yugra     61°16′21″N   71°44′41″E
temp.,
°C
wind,
m/s
gust,
m/s
humid.,
%
clouds,
%
prec.,
mm/h
press.,
hPa
HPBL,
m
23 april, fri
fri2323:000s613785 0.0 1038220
02:000s613761 0.0 1037247
05:00−1s613755 0.0 1036258
08:00+2s71378100 0.0 1035357
11:00+5s71179100 0.0 1035368
14:00+8s81366100 0.0 1033656
17:00+9s7126796 0.0 1033285
20:00+5s61281100 0.0 1033181
24 april, sat
sat2423:00+4s61285100 0.0 1032209
02:00+3s5989100 0.1 1031139
05:00+3ssw51095100 1.5 1030238
08:00+3ssw4895100 2.0 1030209
11:00+4ssw4796100 2.4 1029201
14:00+4sw3596100 0.7 1029116
17:00+4sw3396100 1.1 102851
20:00+3nnw119599 0.3 102813
25 april, sun
sun2523:00+3se338979 0.3 102716
02:00+2ese459279 0.0 102760
05:00+2ese338783 0.0 102743
08:00+5se357033 0.0 1026231
11:00+9se45515 0.0 1025936
14:00+11se563874 0.0 10241957
17:00+11sse673834 0.0 10232030
20:00+8se595997 0.0 1022179
26 april, mon
mon2623:00+6se51069100 0.0 1021204
02:00+5se61178100 0.0 1019245
05:00+5ese71476100 0.0 1016350
08:00+6ese9156599 0.0 1013751
11:00+9se91353100 0.0 10101239
14:00+7se81177100 0.2 10081215
17:00+5s5795100 1.0 1007822
20:00+4sw71197100 1.1 1006894
27 april, tue
tue2723:00+4wsw9158591 1.2 1007799
02:00+4sw71383100 0.1 1006563
05:00+3sw81579100 0.3 1007698
08:00+5wsw101473100 0.3 10071016
11:00+8wsw10135384 0.3 10081796
14:00+9w91352100 0.1 10082046
17:00+10w6115025 0.1 10081783
20:00+6w226547 0.0 100810